User: anonymous
Location: Unspecified
(0.0000°N, 0.0000°E)
Time: 11:26:33
(UTC+02:00)
Language:

Cosmos 1898 Rocket - Orbit

View from above orbital plane
View from above orbital plane
View from above satellite
View from above satellite

Ground track
Ground track

The orbit data is extracted from the following two-line orbital elements,

1 18586U 87098B   14108.94336716  .00000546  00000-0  19514-3 0    48
2 18586 074.0072 262.0969 0021759 233.7650 273.9436 14.36398190381464
Epoch (UTC): 18 April 2014 22:38:26
Eccentricity: 0.0021759
inclination: 74.0072°
perigee height: 755 km
apogee height: 786 km
right ascension of ascending node: 262.0969°
argument of perigee: 233.7650°
revolutions per day: 14.36398190
mean anomaly at epoch: 273.9436°
orbit number at epoch: 38146

The dashed part of the orbit path shows where the satellite is in the earth's shadow,  

DLR